Location: Newark
(49.3000°N, 9.4667°E)
Time: 17:18:52
(UTC+00:00)

Transit 4A - Pass Details

Date: 02 June 2019
Orbit: 862 x 983 km, 66.8° (Epoch: 16 June)

Event Time Altitude Azimuth Distance (km) Brightness Sun altitude
Rises 21:58:37 0° 317° (NW) 3,696 12.3 -16.2°
Reaches altitude 10° 22:01:40 10° 304° (NW) 2,739 11.1 -16.4°
Maximum altitude 22:06:38 24° 253° (WSW) 1,879 9.5 -16.6°
Enters shadow 22:10:35 14° 208° (SSW) 2,432 9.7 -16.8°
